Location: Millers Ferry
(32.0990°N, 87.3680°W)
Time: 03:57:44
(UTC-05:00)

CSL-04 Rocket - Visible Passes

Search period start: 25 July 2014 00:00
Search period end: 04 August 2014 00:00
Orbit: 807 x 860 km, 98.9° (Epoch: 23 July)

Date Brightness Start Highest point End Pass type
(mag) Time Alt. Az. Time Alt. Az. Time Alt. Az.
25 Jul 5.9 04:08:33 10° NE 04:12:35 21° E 04:16:33 10° SE visible
26 Jul 6.2 03:52:57 10° ENE 03:55:42 14° E 03:58:25 10° SE visible
26 Jul 3.9 05:31:02 10° N 05:36:19 56° WNW 05:41:30 10° SSW visible
27 Jul 3.6 05:14:12 10° N 05:19:37 82° WNW 05:24:56 10° SSW visible
28 Jul 4.0 04:57:30 10° NNE 05:02:53 68° ESE 05:08:10 10° S visible
29 Jul 4.6 04:40:57 10° NNE 04:46:07 45° E 04:51:10 10° S visible
30 Jul 5.3 04:24:35 10° NE 04:29:18 31° E 04:33:56 10° SSE visible
31 Jul 5.9 04:08:29 10° NE 04:12:27 21° E 04:16:21 10° SE visible
01 Aug 6.2 03:52:56 10° ENE 03:55:33 14° E 03:58:10 10° ESE visible
01 Aug 3.8 05:30:56 10° N 05:36:11 56° WNW 05:41:20 10° SSW visible
02 Aug 3.6 05:14:06 10° N 05:19:29 83° WNW 05:24:46 10° SSW visible
03 Aug 4.0 04:57:25 10° NNE 05:02:45 67° ESE 05:07:59 10° S visible
